Regional Weather Roundup
Issued by NWS

Home | Current Version | Previous Version | Graphics & Text | Print | Product List | Glossary On
Versions: 1 2 3 4 5 6 7 8 9 10 11 12 13 14 15 16 17 18 19 20 21 22 23 24 25 26 27 28 29 30 31 32 33 34 35 36 37 38 39 40 41 42 43 44 45 46 47 48 49 50
000
ASUS43 KFSD 230602
RWRSD

WEATHER ROUNDUP FOR SOUTH DAKOTA
NATIONAL WEATHER SERVICE SIOUX FALLS SD
100 AM CDT THU OCT 23 2014

NOTE: "FAIR" INDICATES FEW OR NO CLOUDS BELOW 12,000 FEET WITH NO
SIGNIFICANT WEATHER AND/OR OBSTRUCTIONS TO VISIBILITY.


SDZ001>005-009-010-012>017-230700-
NORTHWEST AND NORTH CENTRAL SOUTH DAKOTA

CITY           SKY/WX    TMP DP  RH WIND       PRES   REMARKS
FAITH            N/A     44  30  57 SW9       29.99S
MOBRIDGE       CLEAR     41  34  76 SE3       29.94S
$$

SDZ012>016-024>037-041>051-057-063-072>074-230700-
SOUTHWEST AND SOUTH CENTRAL SOUTH DAKOTA

CITY           SKY/WX    TMP DP  RH WIND       PRES   REMARKS
RAPID CTY ARPT CLEAR     40  32  73 W3        30.03S
PIERRE         CLEAR     45  36  70 SW8       29.98F
CUSTER         CLEAR     37  23  56 SW3       30.07F
ELLSWORTH AFB  CLEAR     44  33  66 SW8       30.02S
PHILIP         CLEAR     36  30  79 W3        30.02R
PINE RIDGE     CLEAR     30  28  92 NE5       30.05F WCI  25
WINNER         FAIR      52  39  61 SW7       30.02S
$$

SDZ004>011-016>023-039-040-230700-
NORTHEAST SOUTH DAKOTA

CITY           SKY/WX    TMP DP  RH WIND       PRES   REMARKS
ABERDEEN       CLEAR     39  38  96 SW6       29.96S
WATERTOWN      CLEAR     44  43  96 S7        29.98R
SISSETON         N/A     53  50  89 W14       29.92S
$$

SDZ017-020-022-023-036>040-048>070-230700-
SOUTHEAST SOUTH DAKOTA

CITY           SKY/WX    TMP DP  RH WIND       PRES   REMARKS
SIOUX FALLS    FOG       51  50  96 CALM      30.02S VSB 1/2
HURON          CLEAR     46  44  93 S6        29.98S
CHAMBERLAIN    CLEAR     41  39  93 W3        30.00S
MITCHELL       CLEAR     49  48  97 S3        30.01S
YANKTON          N/A     48  46  93 CALM      30.02F VSB 1/4
$$

ABBREVIATIONS USED IN REMARKS
   TC - TEMPERATURE IN CELSIUS
  WCI - WIND CHILL INDEX
   HX - HEAT INDEX
  VSB - VISIBILITY




USA.gov is the U.S. government's official web portal to all federal, state and local government web resources and services.